^^
Paulen-Weather Station Historical Data
Daily Summary for January 16, 2020 Units:  Metric    English   Both
Daily Weekly Monthly Yearly Custom
  High: Low: Average:
Temperature: 8 °C 7 °C 7.8 °C
Dew Point: 7 °C 5 °C 5.9 °C
Humidity: 95% 79% 87%
Wind Speed: 42km/h 12km/h 25.8km/h
Wind Gust: 61km/h - -
Wind- - WSW
Pressure: 1017.27 hPa 1002.2 hPa -
Precipitation: 0.2 mm    
Historical Graphs
 
 
Tabular Data for January 16, 2020
Time Temperature Dew Point Pressure Wind Wind Speed Wind Gust Humidity Rainfall Rate (Hourly) solar
00:04 8 °C 6 °C 1002.27 hPa N 33 km/h 48 km/h 84% 0 mm 0 W/m2
00:09 8 °C 6 °C 1002.2 hPa NNW 27 km/h 39 km/h 84% 0 mm 0 W/m2
00:14 8 °C 6 °C 1002.27 hPa N 38 km/h 32 km/h 84% 0 mm 0 W/m2
00:19 8 °C 6 °C 1002.27 hPa WNW 28 km/h 47 km/h 83% 0 mm 0 W/m2
00:24 8 °C 6 °C 1002.4 hPa NNE 36 km/h 39 km/h 83% 0 mm 0 W/m2
00:29 8 °C 5 °C 1002.57 hPa N 35 km/h 39 km/h 82% 0 mm 0 W/m2
00:34 8 °C 6 °C 1002.61 hPa NNE 32 km/h 45 km/h 82% 0 mm 0 W/m2
00:39 8 °C 6 °C 1002.61 hPa NW 41 km/h 42 km/h 82% 0 mm 0 W/m2
00:44 8 °C 6 °C 1002.71 hPa NNE 37 km/h 53 km/h 83% 0 mm 0 W/m2
00:49 8 °C 6 °C 1002.85 hPa N 32 km/h 45 km/h 83% 0 mm 0 W/m2
00:54 8 °C 6 °C 1002.78 hPa NW 34 km/h 47 km/h 83% 0 mm 0 W/m2
00:59 8 °C 6 °C 1002.78 hPa N 29 km/h 34 km/h 83% 0 mm 0 W/m2
01:04 8 °C 6 °C 1002.74 hPa NNW 32 km/h 37 km/h 84% 0 mm 0 W/m2
01:09 8 °C 6 °C 1002.81 hPa N 31 km/h 39 km/h 85% 0 mm 0 W/m2
01:14 8 °C 6 °C 1002.85 hPa NNW 32 km/h 37 km/h 84% 0 mm 0 W/m2
01:19 8 °C 6 °C 1002.88 hPa NNE 38 km/h 43 km/h 84% 0 mm 0 W/m2
01:24 8 °C 6 °C 1002.91 hPa WNW 37 km/h 39 km/h 83% 0 mm 0 W/m2
01:29 8 °C 5 °C 1002.95 hPa N 35 km/h 45 km/h 83% 0 mm 0 W/m2
01:34 8 °C 6 °C 1003.05 hPa NW 33 km/h 40 km/h 84% 0 mm 0 W/m2
01:39 8 °C 6 °C 1003.05 hPa NNW 28 km/h 39 km/h 84% 0 mm 0 W/m2
01:44 8 °C 6 °C 1003.05 hPa N 37 km/h 35 km/h 83% 0 mm 0 W/m2
01:49 8 °C 6 °C 1003.18 hPa NNW 37 km/h 45 km/h 83% 0 mm 0 W/m2
01:54 8 °C 6 °C 1003.29 hPa N 35 km/h 39 km/h 84% 0 mm 0 W/m2
01:59 8 °C 5 °C 1003.39 hPa N 34 km/h 43 km/h 83% 0 mm 0 W/m2
02:04 8 °C 6 °C 1003.42 hPa W 32 km/h 51 km/h 83% 0 mm 0 W/m2
02:09 8 °C 6 °C 1003.45 hPa N 34 km/h 42 km/h 84% 0 mm 0 W/m2
02:14 8 °C 6 °C 1003.52 hPa NW 36 km/h 42 km/h 84% 0 mm 0 W/m2
02:19 8 °C 6 °C 1003.66 hPa NNW 40 km/h 45 km/h 84% 0 mm 0 W/m2
02:24 8 °C 6 °C 1003.66 hPa NW 42 km/h 61 km/h 83% 0 mm 0 W/m2
02:29 8 °C 6 °C 1003.66 hPa NNW 37 km/h 43 km/h 84% 0 mm 0 W/m2
02:34 8 °C 6 °C 1003.79 hPa N 36 km/h 39 km/h 84% 0 mm 0 W/m2
02:39 8 °C 6 °C 1003.86 hPa N 35 km/h 40 km/h 85% 0 mm 0 W/m2
02:44 8 °C 6 °C 1003.93 hPa N 29 km/h 42 km/h 85% 0 mm 0 W/m2
02:49 8 °C 5 °C 1003.93 hPa SSE 38 km/h 47 km/h 84% 0 mm 0 W/m2
02:54 8 °C 5 °C 1004.17 hPa NNW 36 km/h 47 km/h 84% 0 mm 0 W/m2
02:59 8 °C 6 °C 1004.1 hPa NNW 35 km/h 42 km/h 85% 0 mm 0 W/m2
03:04 8 °C 6 °C 1004.23 hPa NNW 33 km/h 50 km/h 86% 0 mm 0 W/m2
03:09 8 °C 6 °C 1004.23 hPa NW 42 km/h 43 km/h 86% 0 mm 0 W/m2
03:14 8 °C 6 °C 1004.44 hPa NW 33 km/h 43 km/h 87% 0 mm 0 W/m2
03:19 8 °C 6 °C 1004.44 hPa WNW 35 km/h 39 km/h 87% 0 mm 0 W/m2
03:24 8 °C 6 °C 1004.5 hPa NW 31 km/h 39 km/h 88% 0 mm 0 W/m2
03:29 8 °C 6 °C 1004.61 hPa NNW 33 km/h 40 km/h 88% 0 mm 0 W/m2
03:34 8 °C 6 °C 1004.74 hPa NW 35 km/h 39 km/h 88% 0 mm 0 W/m2
03:39 8 °C 6 °C 1004.88 hPa WNW 31 km/h 45 km/h 88% 0 mm 0 W/m2
03:44 8 °C 6 °C 1005.01 hPa NNW 34 km/h 37 km/h 87% 0 mm 0 W/m2
03:49 8 °C 6 °C 1005.15 hPa NW 30 km/h 50 km/h 87% 0 mm 0 W/m2
03:54 8 °C 6 °C 1005.22 hPa WNW 36 km/h 53 km/h 87% 0 mm 0 W/m2
03:59 8 °C 6 °C 1005.38 hPa NW 37 km/h 53 km/h 87% 0 mm 0 W/m2
04:04 8 °C 6 °C 1005.59 hPa WNW 32 km/h 50 km/h 87% 0 mm 0 W/m2
04:09 8 °C 6 °C 1005.62 hPa WNW 32 km/h 37 km/h 86% 0 mm 0 W/m2
04:14 8 °C 6 °C 1005.69 hPa NW 39 km/h 43 km/h 86% 0 mm 0 W/m2
04:19 8 °C 6 °C 1005.76 hPa W 32 km/h 45 km/h 87% 0 mm 0 W/m2
04:24 8 °C 6 °C 1005.86 hPa W 37 km/h 39 km/h 87% 0 mm 0 W/m2
04:29 8 °C 6 °C 1005.99 hPa WNW 31 km/h 47 km/h 87% 0 mm 0 W/m2
04:34 8 °C 6 °C 1006.1 hPa NW 37 km/h 42 km/h 87% 0 mm 0 W/m2
04:39 8 °C 6 °C 1006.23 hPa WNW 24 km/h 40 km/h 88% 0 mm 0 W/m2
04:44 8 °C 6 °C 1006.47 hPa NW 23 km/h 32 km/h 88% 0 mm 0 W/m2
04:49 8 °C 6 °C 1006.5 hPa NW 31 km/h 29 km/h 89% 0 mm 0 W/m2
04:54 8 °C 6 °C 1006.67 hPa WNW 33 km/h 43 km/h 89% 0 mm 0 W/m2
04:59 8 °C 6 °C 1006.67 hPa NNW 28 km/h 35 km/h 89% 0 mm 0 W/m2
05:04 8 °C 6 °C 1006.81 hPa NNW 25 km/h 34 km/h 88% 0 mm 0 W/m2
05:09 8 °C 6 °C 1006.87 hPa NW 31 km/h 37 km/h 88% 0 mm 0 W/m2
05:14 8 °C 6 °C 1007.01 hPa WNW 30 km/h 39 km/h 87% 0 mm 0 W/m2
05:19 8 °C 6 °C 1007.04 hPa NW 20 km/h 47 km/h 87% 0 mm 0 W/m2
05:24 8 °C 6 °C 1007.04 hPa NW 26 km/h 31 km/h 87% 0 mm 0 W/m2
05:29 8 °C 6 °C 1007.15 hPa WNW 29 km/h 35 km/h 87% 0 mm 0 W/m2
05:34 8 °C 6 °C 1007.15 hPa WNW 35 km/h 42 km/h 86% 0 mm 0 W/m2
05:39 8 °C 6 °C 1007.32 hPa W 34 km/h 42 km/h 85% 0 mm 0 W/m2
05:44 8 °C 6 °C 1007.35 hPa NW 33 km/h 42 km/h 85% 0 mm 0 W/m2
05:49 8 °C 6 °C 1007.42 hPa WNW 25 km/h 40 km/h 85% 0 mm 0 W/m2
05:54 8 °C 6 °C 1007.55 hPa NW 27 km/h 29 km/h 85% 0 mm 0 W/m2
05:59 8 °C 6 °C 1007.69 hPa WNW 23 km/h 34 km/h 85% 0 mm 0 W/m2
06:04 8 °C 6 °C 1007.72 hPa NW 30 km/h 43 km/h 85% 0 mm 0 W/m2
06:09 8 °C 6 °C 1007.96 hPa NW 28 km/h 39 km/h 85% 0 mm 0 W/m2
06:14 8 °C 6 °C 1008.06 hPa NW 27 km/h 45 km/h 85% 0 mm 0 W/m2
06:19 8 °C 6 °C 1008.2 hPa NW 26 km/h 32 km/h 84% 0 mm 0 W/m2
06:24 8 °C 6 °C 1008.33 hPa WNW 27 km/h 37 km/h 84% 0 mm 0 W/m2
06:29 8 °C 6 °C 1008.5 hPa NW 22 km/h 40 km/h 84% 0 mm 0 W/m2
06:34 8 °C 6 °C 1008.6 hPa WSW 28 km/h 23 km/h 84% 0 mm 0 W/m2
06:39 8 °C 6 °C 1008.74 hPa NW 28 km/h 34 km/h 84% 0 mm 0 W/m2
06:44 8 °C 6 °C 1008.81 hPa NW 25 km/h 37 km/h 84% 0 mm 0 W/m2
06:49 8 °C 6 °C 1008.94 hPa NNW 20 km/h 34 km/h 84% 0 mm 0 W/m2
06:54 8 °C 6 °C 1009.01 hPa WNW 24 km/h 27 km/h 84% 0 mm 0 W/m2
06:59 8 °C 6 °C 1009.18 hPa NW 22 km/h 29 km/h 84% 0 mm 0 W/m2
07:04 8 °C 6 °C 1009.31 hPa NNW 29 km/h 29 km/h 84% 0 mm 0 W/m2
07:09 8 °C 6 °C 1009.38 hPa NNW 22 km/h 35 km/h 84% 0 mm 0 W/m2
07:14 8 °C 6 °C 1009.41 hPa NW 28 km/h 34 km/h 84% 0 mm 0 W/m2
07:19 8 °C 6 °C 1009.62 hPa NW 22 km/h 34 km/h 84% 0 mm 0 W/m2
07:24 8 °C 6 °C 1009.82 hPa WNW 23 km/h 27 km/h 84% 0 mm 0 W/m2
07:29 8 °C 6 °C 1009.85 hPa NW 23 km/h 35 km/h 84% 0 mm 0 W/m2
07:34 8 °C 6 °C 1009.92 hPa NW 22 km/h 24 km/h 84% 0 mm 0 W/m2
07:39 8 °C 5 °C 1010.02 hPa NW 22 km/h 29 km/h 83% 0 mm 0 W/m2
07:44 8 °C 5 °C 1010.09 hPa W 20 km/h 27 km/h 83% 0 mm 0 W/m2
07:49 8 °C 5 °C 1010.26 hPa NNW 24 km/h 26 km/h 84% 0 mm 0 W/m2
07:54 8 °C 5 °C 1010.3 hPa NW 25 km/h 34 km/h 84% 0 mm 0 W/m2
07:59 8 °C 5 °C 1010.4 hPa WNW 21 km/h 35 km/h 84% 0 mm 0 W/m2
08:04 8 °C 5 °C 1010.46 hPa NW 25 km/h 24 km/h 84% 0 mm 0 W/m2
08:09 8 °C 5 °C 1010.74 hPa NW 25 km/h 29 km/h 84% 0 mm 0 W/m2
08:14 8 °C 5 °C 1010.97 hPa NNW 24 km/h 29 km/h 84% 0 mm 0 W/m2
08:19 8 °C 5 °C 1011.11 hPa NW 25 km/h 35 km/h 84% 0 mm 0 W/m2
08:24 8 °C 5 °C 1011.18 hPa NW 23 km/h 32 km/h 84% 0 mm 0 W/m2
08:29 8 °C 5 °C 1011.31 hPa NW 29 km/h 32 km/h 84% 0 mm 0 W/m2
08:34 8 °C 5 °C 1011.41 hPa NW 22 km/h 34 km/h 84% 0 mm 0 W/m2
08:39 8 °C 5 °C 1011.65 hPa WNW 25 km/h 24 km/h 84% 0 mm 0 W/m2
08:44 8 °C 5 °C 1011.79 hPa SSW 26 km/h 32 km/h 84% 0 mm 0 W/m2
08:49 8 °C 5 °C 1011.92 hPa WNW 25 km/h 29 km/h 84% 0 mm 0 W/m2
08:54 8 °C 5 °C 1011.92 hPa WNW 24 km/h 29 km/h 84% 0 mm 0 W/m2
08:59 8 °C 6 °C 1011.99 hPa WNW 24 km/h 35 km/h 85% 0 mm 5 W/m2
09:04 8 °C 6 °C 1012.19 hPa NW 25 km/h 31 km/h 85% 0 mm 7 W/m2
09:09 8 °C 6 °C 1012.33 hPa NW 22 km/h 32 km/h 85% 0 mm 9 W/m2
09:14 8 °C 5 °C 1012.5 hPa NW 28 km/h 24 km/h 84% 0 mm 12 W/m2
09:19 8 °C 5 °C 1012.6 hPa NW 26 km/h 40 km/h 84% 0 mm 16 W/m2
09:24 8 °C 5 °C 1012.7 hPa NW 24 km/h 35 km/h 83% 0 mm 16 W/m2
09:29 8 °C 5 °C 1012.8 hPa NW 29 km/h 32 km/h 83% 0 mm 19 W/m2
09:34 8 °C 5 °C 1012.9 hPa W 21 km/h 37 km/h 83% 0 mm 21 W/m2
09:39 8 °C 5 °C 1013 hPa NW 26 km/h 26 km/h 82% 0 mm 21 W/m2
09:44 8 °C 5 °C 1013.17 hPa WNW 21 km/h 32 km/h 82% 0 mm 18 W/m2
09:49 8 °C 5 °C 1013.28 hPa NW 18 km/h 24 km/h 82% 0 mm 16 W/m2
09:54 8 °C 5 °C 1013.24 hPa NW 18 km/h 23 km/h 81% 0 mm 14 W/m2
09:59 8 °C 5 °C 1013.31 hPa NW 22 km/h 19 km/h 82% 0 mm 23 W/m2
10:04 8 °C 5 °C 1013.38 hPa NW 19 km/h 32 km/h 82% 0 mm 26 W/m2
10:09 8 °C 5 °C 1013.41 hPa NW 21 km/h 21 km/h 82% 0 mm 33 W/m2
10:14 8 °C 5 °C 1013.51 hPa WNW 17 km/h 31 km/h 83% 0 mm 32 W/m2
10:19 8 °C 5 °C 1013.65 hPa NW 15 km/h 23 km/h 83% 0 mm 40 W/m2
10:24 8 °C 5 °C 1013.78 hPa WNW 15 km/h 19 km/h 83% 0 mm 33 W/m2
10:29 8 °C 5 °C 1013.99 hPa NW 18 km/h 21 km/h 82% 0 mm 37 W/m2
10:34 8 °C 5 °C 1014.16 hPa NW 25 km/h 34 km/h 81% 0 mm 23 W/m2
10:39 8 °C 5 °C 1014.16 hPa NW 18 km/h 32 km/h 81% 0 mm 33 W/m2
10:44 8 °C 5 °C 1014.33 hPa NW 20 km/h 21 km/h 81% 0 mm 42 W/m2
10:49 8 °C 5 °C 1014.39 hPa NW 19 km/h 23 km/h 81% 0 mm 49 W/m2
10:54 8 °C 5 °C 1014.46 hPa WNW 19 km/h 23 km/h 82% 0 mm 84 W/m2
10:59 8 °C 5 °C 1014.49 hPa W 23 km/h 29 km/h 82% 0 mm 137 W/m2
11:04 8 °C 6 °C 1014.56 hPa WNW 18 km/h 32 km/h 82% 0 mm 158 W/m2
11:09 8 °C 5 °C 1014.56 hPa WNW 21 km/h 21 km/h 82% 0 mm 148 W/m2
11:14 8 °C 5 °C 1014.66 hPa NW 20 km/h 24 km/h 82% 0 mm 113 W/m2
11:19 8 °C 5 °C 1014.77 hPa NW 14 km/h 26 km/h 81% 0 mm 109 W/m2
11:24 8 °C 5 °C 1014.9 hPa NW 20 km/h 24 km/h 81% 0 mm 67 W/m2
11:29 8 °C 5 °C 1014.97 hPa NW 16 km/h 23 km/h 81% 0 mm 121 W/m2
11:34 8 °C 5 °C 1014.97 hPa NW 16 km/h 19 km/h 81% 0 mm 81 W/m2
11:39 8 °C 5 °C 1015.04 hPa NNW 21 km/h 23 km/h 81% 0 mm 123 W/m2
11:44 8 °C 5 °C 1015.04 hPa NW 23 km/h 32 km/h 81% 0 mm 105 W/m2
11:49 8 °C 5 °C 1015.07 hPa NW 18 km/h 27 km/h 81% 0 mm 130 W/m2
11:54 8 °C 5 °C 1015.14 hPa WNW 20 km/h 24 km/h 81% 0 mm 130 W/m2
11:59 8 °C 5 °C 1015.24 hPa NW 16 km/h 24 km/h 82% 0 mm 88 W/m2
12:04 8 °C 5 °C 1015.27 hPa WNW 18 km/h 27 km/h 82% 0 mm 76 W/m2
12:09 8 °C 5 °C 1015.27 hPa NW 21 km/h 26 km/h 82% 0 mm 132 W/m2
12:14 8 °C 6 °C 1015.27 hPa NW 16 km/h 27 km/h 82% 0 mm 158 W/m2
12:19 8 °C 6 °C 1015.37 hPa NW 19 km/h 19 km/h 82% 0 mm 123 W/m2
12:24 8 °C 5 °C 1015.37 hPa NNW 25 km/h 34 km/h 80% 0 mm 56 W/m2
12:29 8 °C 5 °C 1015.37 hPa NNW 22 km/h 34 km/h 79% 0 mm 76 W/m2
12:34 8 °C 5 °C 1015.51 hPa WNW 20 km/h 26 km/h 80% 0 mm 167 W/m2
12:39 8 °C 5 °C 1015.44 hPa NW 19 km/h 26 km/h 81% 0 mm 167 W/m2
12:44 8 °C 6 °C 1015.37 hPa WNW 19 km/h 23 km/h 82% 0 mm 179 W/m2
12:49 8 °C 6 °C 1015.41 hPa WNW 12 km/h 19 km/h 83% 0 mm 179 W/m2
12:54 8 °C 6 °C 1015.48 hPa WNW 21 km/h 26 km/h 83% 0 mm 135 W/m2
12:59 8 °C 6 °C 1015.48 hPa NNW 19 km/h 24 km/h 84% 0 mm 181 W/m2
13:04 8 °C 6 °C 1015.54 hPa NW 21 km/h 21 km/h 85% 0 mm 172 W/m2
13:09 8 °C 6 °C 1015.68 hPa NNW 26 km/h 26 km/h 85% 0 mm 141 W/m2
13:14 8 °C 6 °C 1015.78 hPa W 19 km/h 29 km/h 85% 0 mm 160 W/m2
13:19 8 °C 6 °C 1015.82 hPa NNW 21 km/h 26 km/h 85% 0 mm 156 W/m2
13:24 8 °C 6 °C 1015.88 hPa NNW 26 km/h 27 km/h 85% 0 mm 139 W/m2
13:29 8 °C 6 °C 1015.98 hPa NW 18 km/h 29 km/h 85% 0 mm 81 W/m2
13:34 8 °C 6 °C 1016.12 hPa NW 22 km/h 24 km/h 85% 0 mm 81 W/m2
13:39 8 °C 6 °C 1016.05 hPa NW 19 km/h 24 km/h 85% 0 mm 81 W/m2
13:44 8 °C 6 °C 1016.12 hPa WSW 19 km/h 26 km/h 85% 0 mm 107 W/m2
13:49 8 °C 6 °C 1016.09 hPa NW 18 km/h 23 km/h 86% 0 mm 151 W/m2
13:54 8 °C 6 °C 1016.09 hPa NW 19 km/h 23 km/h 86% 0 mm 144 W/m2
13:59 8 °C 6 °C 1016.09 hPa NW 17 km/h 23 km/h 86% 0 mm 153 W/m2
14:04 8 °C 6 °C 1016.09 hPa NW 18 km/h 23 km/h 86% 0 mm 83 W/m2
14:09 8 °C 6 °C 1016.12 hPa NNW 23 km/h 23 km/h 87% 0 mm 77 W/m2
14:14 8 °C 6 °C 1016.19 hPa NNW 18 km/h 27 km/h 87% 0 mm 37 W/m2
14:19 8 °C 6 °C 1016.15 hPa NW 15 km/h 23 km/h 87% 0 mm 53 W/m2
14:24 8 °C 6 °C 1016.19 hPa WNW 22 km/h 24 km/h 88% 0 mm 49 W/m2
14:29 8 °C 6 °C 1016.29 hPa N 22 km/h 24 km/h 89% 0 mm 35 W/m2
14:34 8 °C 6 °C 1016.32 hPa NNW 16 km/h 24 km/h 89% 0 mm 25 W/m2
14:39 8 °C 6 °C 1016.32 hPa WNW 20 km/h 23 km/h 89% 0 mm 26 W/m2
14:44 8 °C 6 °C 1016.49 hPa N 19 km/h 26 km/h 89% 0 mm 21 W/m2
14:49 8 °C 6 °C 1016.56 hPa NW 21 km/h 21 km/h 90% 0 mm 23 W/m2
14:54 8 °C 6 °C 1016.7 hPa N 22 km/h 27 km/h 90% 0 mm 23 W/m2
14:59 8 °C 6 °C 1016.73 hPa NNW 17 km/h 32 km/h 90% 0 mm 23 W/m2
15:04 8 °C 6 °C 1016.73 hPa NNW 20 km/h 19 km/h 90% 0 mm 25 W/m2
15:09 8 °C 6 °C 1016.76 hPa NNW 19 km/h 26 km/h 90% 0 mm 28 W/m2
15:14 8 °C 6 °C 1016.8 hPa NW 24 km/h 27 km/h 89% 0 mm 25 W/m2
15:19 8 °C 6 °C 1016.8 hPa NNW 18 km/h 27 km/h 89% 0 mm 18 W/m2
15:24 8 °C 6 °C 1016.8 hPa NW 15 km/h 19 km/h 89% 0 mm 16 W/m2
15:29 8 °C 6 °C 1016.8 hPa NNW 13 km/h 21 km/h 89% 0 mm 12 W/m2
15:34 8 °C 6 °C 1016.8 hPa NW 18 km/h 16 km/h 89% 0 mm 12 W/m2
15:39 8 °C 6 °C 1016.73 hPa NW 16 km/h 26 km/h 90% 0 mm 11 W/m2
15:44 8 °C 6 °C 1016.76 hPa W 13 km/h 19 km/h 90% 0 mm 9 W/m2
15:49 8 °C 6 °C 1016.83 hPa NW 20 km/h 19 km/h 91% 0 mm 9 W/m2
15:54 8 °C 6 °C 1016.9 hPa N 22 km/h 27 km/h 91% 0 mm 7 W/m2
15:59 8 °C 6 °C 1016.93 hPa NNW 19 km/h 29 km/h 91% 0 mm 5 W/m2
16:04 8 °C 6 °C 1016.93 hPa N 17 km/h 24 km/h 91% 0 mm 0 W/m2
16:09 8 °C 6 °C 1016.8 hPa N 21 km/h 23 km/h 91% 0 mm 0 W/m2
16:14 8 °C 6 °C 1016.8 hPa NNW 18 km/h 26 km/h 91% 0 mm 0 W/m2
16:19 8 °C 6 °C 1016.86 hPa N 20 km/h 21 km/h 91% 0 mm 0 W/m2
16:24 8 °C 6 °C 1016.93 hPa WNW 19 km/h 24 km/h 91% 0 mm 0 W/m2
16:29 8 °C 6 °C 1016.97 hPa NNW 21 km/h 23 km/h 91% 0 mm 0 W/m2
16:34 8 °C 6 °C 1016.86 hPa NNE 22 km/h 26 km/h 91% 0 mm 0 W/m2
16:39 8 °C 6 °C 1016.93 hPa N 18 km/h 26 km/h 91% 0 mm 0 W/m2
16:44 8 °C 6 °C 1017 hPa W 18 km/h 21 km/h 91% 0 mm 0 W/m2
16:49 8 °C 6 °C 1017 hPa NNW 16 km/h 21 km/h 91% 0 mm 0 W/m2
16:54 8 °C 6 °C 1016.97 hPa N 19 km/h 21 km/h 91% 0 mm 0 W/m2
16:59 8 °C 6 °C 1017 hPa WNW 19 km/h 23 km/h 92% 0 mm 0 W/m2
17:04 8 °C 6 °C 1017.1 hPa N 21 km/h 26 km/h 92% 0 mm 0 W/m2
17:09 8 °C 7 °C 1017.1 hPa NW 21 km/h 27 km/h 92% 0 mm 0 W/m2
17:14 8 °C 7 °C 1017.2 hPa NW 23 km/h 26 km/h 93% 0 mm 0 W/m2
17:19 8 °C 7 °C 1017.27 hPa NNE 22 km/h 26 km/h 93% 0 mm 0 W/m2
17:24 8 °C 7 °C 1017.27 hPa NNE 26 km/h 24 km/h 93% 0 mm 0 W/m2
17:29 8 °C 7 °C 1017.17 hPa NNE 22 km/h 32 km/h 93% 0 mm 0 W/m2
17:34 8 °C 6 °C 1017.1 hPa NNE 21 km/h 24 km/h 92% 0 mm 0 W/m2
17:39 8 °C 6 °C 1017.1 hPa N 28 km/h 29 km/h 92% 0 mm 0 W/m2
17:44 8 °C 6 °C 1017.14 hPa N 21 km/h 32 km/h 92% 0 mm 0 W/m2
17:49 8 °C 6 °C 1017.03 hPa W 17 km/h 24 km/h 92% 0 mm 0 W/m2
17:54 8 °C 6 °C 1017.1 hPa WNW 17 km/h 19 km/h 92% 0 mm 0 W/m2
17:59 8 °C 7 °C 1017.03 hPa NNW 20 km/h 19 km/h 93% 0 mm 0 W/m2
18:04 8 °C 7 °C 1017.14 hPa NNW 16 km/h 24 km/h 93% 0 mm 0 W/m2
18:09 8 °C 7 °C 1017.17 hPa WNW 18 km/h 21 km/h 93% 0 mm 0 W/m2
18:14 8 °C 7 °C 1017.1 hPa N 18 km/h 21 km/h 94% 0 mm 0 W/m2
18:19 8 °C 7 °C 1017 hPa N 20 km/h 21 km/h 94% 0 mm 0 W/m2
18:24 8 °C 7 °C 1016.93 hPa N 20 km/h 27 km/h 94% 0 mm 0 W/m2
18:29 7 °C 7 °C 1016.83 hPa W 23 km/h 24 km/h 94% 0 mm 0 W/m2
18:34 7 °C 7 °C 1016.86 hPa NNW 25 km/h 32 km/h 94% 0 mm 0 W/m2
18:39 7 °C 7 °C 1016.83 hPa SW 27 km/h 29 km/h 94% 0 mm 0 W/m2
18:44 7 °C 7 °C 1016.83 hPa NNE 25 km/h 32 km/h 94% 0 mm 0 W/m2
18:49 7 °C 7 °C 1016.83 hPa WNW 21 km/h 27 km/h 94% 0 mm 0 W/m2
18:54 7 °C 7 °C 1016.86 hPa S 23 km/h 26 km/h 94% 0 mm 0 W/m2
18:59 7 °C 7 °C 1016.76 hPa NNE 24 km/h 24 km/h 94% 0 mm 0 W/m2
19:04 7 °C 7 °C 1016.7 hPa N 28 km/h 29 km/h 94% 0 mm 0 W/m2
19:09 7 °C 7 °C 1016.7 hPa NNE 23 km/h 32 km/h 94% 0 mm 0 W/m2
19:14 7 °C 7 °C 1016.83 hPa SSW 25 km/h 24 km/h 94% 0 mm 0 W/m2
19:19 7 °C 7 °C 1016.86 hPa NNE 26 km/h 27 km/h 95% 0 mm 0 W/m2
19:24 7 °C 7 °C 1016.97 hPa SW 30 km/h 34 km/h 95% 0 mm 0 W/m2
19:29 7 °C 7 °C 1017 hPa NNE 26 km/h 32 km/h 94% 0 mm 0 W/m2
19:34 7 °C 7 °C 1016.93 hPa NNE 31 km/h 29 km/h 94% 0 mm 0 W/m2
19:39 7 °C 7 °C 1016.86 hPa NNE 30 km/h 35 km/h 94% 0 mm 0 W/m2
19:44 7 °C 7 °C 1016.83 hPa S 28 km/h 34 km/h 94% 0 mm 0 W/m2
19:49 7 °C 7 °C 1016.76 hPa NNE 27 km/h 32 km/h 94% 0 mm 0 W/m2
19:54 7 °C 7 °C 1016.7 hPa N 30 km/h 32 km/h 94% 0 mm 0 W/m2
19:59 7 °C 7 °C 1016.66 hPa NNE 26 km/h 34 km/h 93% 0 mm 0 W/m2
20:04 7 °C 6 °C 1016.59 hPa W 27 km/h 32 km/h 93% 0 mm 0 W/m2
20:09 7 °C 6 °C 1016.59 hPa NE 28 km/h 32 km/h 93% 0 mm 0 W/m2
20:14 7 °C 6 °C 1016.56 hPa NE 26 km/h 32 km/h 93% 0 mm 0 W/m2
20:19 8 °C 6 °C 1016.66 hPa SSW 28 km/h 32 km/h 93% 0 mm 0 W/m2
20:24 8 °C 7 °C 1016.63 hPa NE 27 km/h 32 km/h 93% 0 mm 0 W/m2
20:29 8 °C 7 °C 1016.8 hPa WSW 30 km/h 29 km/h 93% 0 mm 0 W/m2
20:34 8 °C 7 °C 1016.76 hPa S 26 km/h 34 km/h 93% 0 mm 0 W/m2
20:39 8 °C 7 °C 1016.66 hPa S 30 km/h 32 km/h 93% 0 mm 0 W/m2
20:44 8 °C 7 °C 1016.66 hPa NE 32 km/h 34 km/h 93% 0 mm 0 W/m2
20:49 8 °C 7 °C 1016.73 hPa NE 31 km/h 37 km/h 93% 0 mm 0 W/m2
20:54 8 °C 7 °C 1016.8 hPa S 29 km/h 34 km/h 92% 0 mm 0 W/m2
20:59 8 °C 6 °C 1016.8 hPa NE 28 km/h 34 km/h 92% 0 mm 0 W/m2
21:04 8 °C 6 °C 1017 hPa E 31 km/h 37 km/h 92% 0 mm 0 W/m2
21:09 7 °C 6 °C 1016.97 hPa NE 33 km/h 35 km/h 91% 0 mm 0 W/m2
21:14 7 °C 6 °C 1016.83 hPa ESE 34 km/h 35 km/h 91% 0 mm 0 W/m2
21:19 7 °C 6 °C 1016.83 hPa NE 33 km/h 35 km/h 91% 0 mm 0 W/m2
21:24 7 °C 6 °C 1016.76 hPa ENE 29 km/h 35 km/h 91% 0 mm 0 W/m2
21:29 7 °C 6 °C 1016.66 hPa SSE 32 km/h 34 km/h 92% 0 mm 0 W/m2
21:34 7 °C 6 °C 1016.63 hPa S 29 km/h 35 km/h 92% 0 mm 0 W/m2
21:39 7 °C 6 °C 1016.29 hPa S 27 km/h 34 km/h 91% 0 mm 0 W/m2
21:44 7 °C 6 °C 1016.05 hPa S 33 km/h 35 km/h 91% 0 mm 0 W/m2
21:49 7 °C 6 °C 1015.98 hPa NE 34 km/h 37 km/h 91% 0 mm 0 W/m2
21:54 7 °C 6 °C 1015.82 hPa S 37 km/h 37 km/h 91% 0 mm 0 W/m2
21:59 7 °C 6 °C 1015.82 hPa ENE 36 km/h 40 km/h 91% 0 mm 0 W/m2
22:04 7 °C 6 °C 1015.82 hPa SE 34 km/h 40 km/h 91% 0 mm 0 W/m2
22:09 7 °C 6 °C 1015.88 hPa SSE 31 km/h 37 km/h 91% 0 mm 0 W/m2
22:14 7 °C 6 °C 1015.92 hPa S 34 km/h 35 km/h 91% 0 mm 0 W/m2
22:19 7 °C 5 °C 1015.85 hPa S 35 km/h 40 km/h 91% 0 mm 0 W/m2
22:24 7 °C 5 °C 1015.85 hPa ESE 40 km/h 40 km/h 90% 0 mm 0 W/m2
22:29 7 °C 5 °C 1015.85 hPa S 32 km/h 42 km/h 90% 0 mm 0 W/m2
22:34 7 °C 5 °C 1015.78 hPa ESE 29 km/h 35 km/h 90% 0 mm 0 W/m2
22:39 7 °C 5 °C 1015.68 hPa ENE 30 km/h 29 km/h 90% 0 mm 0 W/m2
22:44 7 °C 5 °C 1015.51 hPa ENE 34 km/h 35 km/h 90% 0 mm 0 W/m2
22:49 7 °C 5 °C 1015.37 hPa E 28 km/h 35 km/h 90% 0 mm 0 W/m2
22:54 7 °C 5 °C 1015.27 hPa S 33 km/h 30 km/h 90% 0 mm 0 W/m2
22:59 7 °C 5 °C 1015.27 hPa S 28 km/h 39 km/h 90% 0 mm 0 W/m2
23:04 7 °C 5 °C 1015.24 hPa SE 32 km/h 34 km/h 90% 0 mm 0 W/m2
23:09 7 °C 5 °C 1015.31 hPa S 30 km/h 35 km/h 90% 0 mm 0 W/m2
23:14 7 °C 5 °C 1015.34 hPa ENE 30 km/h 32 km/h 90% 0 mm 0 W/m2
23:19 7 °C 5 °C 1015.31 hPa S 29 km/h 32 km/h 90% 0 mm 0 W/m2
23:24 7 °C 5 °C 1015.31 hPa E 28 km/h 35 km/h 89% 0 mm 0 W/m2
23:29 7 °C 5 °C 1015.21 hPa SSE 28 km/h 29 km/h 89% 0 mm 0 W/m2
23:34 7 °C 5 °C 1015.24 hPa S 26 km/h 32 km/h 90% 0 mm 0 W/m2
23:39 7 °C 5 °C 1015.21 hPa S 25 km/h 29 km/h 90% 0 mm 0 W/m2
23:44 7 °C 5 °C 1015.07 hPa SSE 23 km/h 27 km/h 90% 0 mm 0 W/m2
23:49 7 °C 5 °C 1015 hPa E 25 km/h 32 km/h 91% 0 mm 0 W/m2
23:54 7 °C 6 °C 1014.87 hPa ESE 29 km/h 26 km/h 92% 0 mm 0 W/m2
23:59 7 °C 6 °C 1014.73 hPa S 30 km/h 35 km/h 92% 0.2 mm 0 W/m2
Compliments of Weather Underground - 2 mb